sat.trackr.live / text

‹ back to catalog

STARLINK-2565

NORAD 48280 · 2021-036E

PAYLOAD ACTIVE UNKNOWN

§ Identity

Operator
Country
US
Launch date
2021-04-29
Launch site
AFETR
Launch vehicle
Mass (kg)
RCS (m²)

Purposes: comms

External: N2YO · Heavens-Above · Gunter

§ Orbital elements

Epoch: 2026-05-25T03:16:08.139648Z

Period
94.01 min
Inclination
53.1594°
Eccentricity
0.0001280
Mean motion
15.31690874 rev/d
Perigee alt
469.9 km
Apogee alt
471.6 km
Semi-major
6,848.9 km
B*
7.9009e-5
RAAN
105.6309°
Arg perigee
67.1903°
Mean anomaly
292.9233°
Rev number
27,974

§ Raw data

STARLINK-25651 48280U 21036E   26145.13620532  .00002087  00000+0  79009-4 0  99992 48280  53.1594 105.6309 0001280  67.1903 292.9233 15.31690874279745

JSON: /api/v1/satellites/48280 · /tle

For live sub-satellite position, see the globe view (requires WebGL).

§ Visibility from observer

Set your observer location to see the next 7 days of passes ≥ 10°. The values pass through the URL so the page stays shareable.

No JS? Fill the form by hand. The geolocation button needs JavaScript.